Theta_e
342 344 346 346 347 349 350 351 352 353 355 356 357 357 359 359 360 360 361 361 360 359 358 356 354 354 355 352 350 352 353 351 350 352 352 351 357 358 364 368 372 370 370 368 366 364 366 364 365 364 363 363 361 361 362 360 362 359 358 361 352 353 351 350 349 349 346 341 346 345 348 349 348 348 347 349 350 350 352 351 352 354 355 355 359
342 343 344 346 346 348 349 351 352 351 354 355 356 357 359 358 359 360 361 361 361 360 358 356 358 356 354 352 351 350 352 349 347 351 351 350 360 363 364 364 371 372 370 370 369 364 365 363 364 363 364 365 365 363 364 362 362 360 356 354 354 351 350 349 351 347 342 337 339 342 343 348 349 347 346 349 349 352 353 356 357 351 351 354 360
341 341 343 344 346 346 348 349 350 351 353 354 357 357 358 359 360 361 361 361 361 360 359 357 359 360 356 354 352 351 353 350 346 349 352 351 356 361 363 367 370 370 368 368 365 365 366 365 365 366 367 365 363 363 363 362 360 357 357 353 352 352 350 351 355 349 343 346 346 341 339 339 346 346 349 348 347 350 351 352 352 351 352 356 359
339 341 341 343 345 346 347 348 350 351 353 354 355 357 358 360 361 362 362 362 362 361 360 360 360 361 362 361 357 354 351 350 349 350 351 352 351 355 363 367 366 366 366 362 365 366 365 363 364 365 365 366 363 361 360 358 361 359 356 356 355 348 349 353 354 355 350 346 341 340 338 336 331 342 347 348 346 348 348 350 349 349 354 355 360
340 340 341 342 343 344 347 349 350 349 350 352 353 355 356 358 362 362 362 361 362 361 360 360 361 361 362 363 360 356 355 350 346 346 351 351 350 353 355 362 363 364 366 366 365 366 366 365 364 364 363 363 361 359 357 356 358 359 358 357 355 350 348 352 355 353 355 353 347 342 342 339 341 339 340 344 346 344 347 350 351 350 353 354 354
340 340 341 342 343 345 347 349 348 349 349 352 353 354 356 358 362 362 362 362 361 362 361 362 360 359 358 353 349 348 347 345 342 341 344 347 347 350 353 356 359 362 365 365 363 363 364 365 366 363 365 362 360 358 360 356 356 356 360 356 354 353 355 350 350 357 352 357 352 348 347 338 339 342 338 337 349 347 347 349 353 352 353 354 358
339 340 341 341 343 344 346 348 348 348 350 352 353 354 355 358 361 361 361 362 361 362 362 361 359 360 359 352 351 349 347 346 348 344 344 347 349 350 352 355 357 358 362 365 364 364 365 365 365 366 363 363 363 360 357 354 355 357 358 356 355 361 357 353 347 348 356 354 352 352 351 350 348 341 338 337 339 346 349 347 349 352 352 352 352
336 338 340 343 344 344 345 347 347 347 350 351 351 353 356 360 361 361 361 361 362 362 361 361 359 357 354 355 353 350 348 347 348 346 345 349 347 350 352 354 357 358 361 363 365 363 364 364 365 365 362 363 361 357 356 356 358 361 359 363 362 361 360 353 353 351 348 352 353 349 351 351 349 346 347 339 335 339 343 348 350 352 351 353 354
338 337 338 340 343 344 346 347 347 348 349 350 351 353 355 359 363 363 361 362 360 359 361 361 359 358 359 356 353 353 353 350 350 350 347 350 349 351 354 354 356 360 359 362 363 362 363 363 363 361 364 363 363 356 357 357 356 361 363 361 362 361 358 358 356 355 349 349 353 355 349 346 344 346 344 345 340 337 335 336 340 348 352 355 356
339 338 339 340 343 345 346 347 348 348 349 351 352 353 355 360 363 363 363 361 361 362 360 360 360 360 359 357 355 355 353 354 351 348 350 352 351 352 353 355 354 357 359 361 362 363 360 360 360 361 361 359 358 358 357 357 358 361 361 358 363 360 361 357 357 357 353 353 349 351 351 348 345 342 342 341 342 345 337 334 337 340 340 348 356
340 340 341 342 344 345 347 347 348 348 350 351 351 352 355 358 362 363 364 362 361 360 360 357 358 359 359 359 357 356 354 352 350 349 350 352 351 349 351 354 353 354 355 358 357 360 361 361 359 360 362 361 360 358 356 353 353 357 357 360 362 361 359 359 358 359 356 356 352 351 349 343 342 340 342 342 341 338 337 337 338 342 341 341 354
340 340 340 341 344 345 346 347 347 348 348 350 351 352 353 357 360 363 364 363 361 360 360 359 358 359 360 361 358 357 357 352 352 351 350 351 350 348 350 351 353 352 355 354 357 356 358 358 359 360 361 362 359 359 358 355 353 354 357 360 360 362 363 361 358 356 353 355 355 349 348 346 347 345 345 347 346 344 343 340 338 343 343 346 351
340 341 341 340 342 344 344 346 349 350 350 351 350 351 354 356 360 361 363 364 362 361 360 359 359 359 358 359 359 359 357 356 354 352 351 350 349 348 351 351 353 353 352 352 354 356 358 358 358 356 361 362 364 361 361 362 358 354 356 358 357 360 361 361 357 355 353 353 352 354 350 347 347 351 348 346 348 347 346 342 343 344 342 345 352
341 341 341 342 343 344 345 347 349 350 350 351 351 353 354 355 359 359 363 364 364 361 360 358 358 358 358 358 359 359 358 356 354 352 350 351 350 349 349 350 352 352 352 353 353 353 352 354 357 359 364 366 366 367 364 363 362 360 356 358 357 360 361 361 360 356 357 356 358 353 354 352 352 353 353 350 348 346 345 344 347 348 349 346 349
341 343 342 342 344 346 346 348 350 351 350 350 351 354 355 354 357 359 362 363 364 362 360 359 357 358 358 357 358 359 357 355 354 353 352 350 349 349 351 349 348 350 349 354 357 355 353 353 354 358 360 364 367 364 357 360 363 363 359 359 361 357 360 359 356 353 351 355 359 357 355 352 354 356 353 354 351 350 348 349 350 348 346 346 345
341 341 342 343 347 348 348 350 350 350 352 352 352 354 355 356 356 359 360 362 362 363 361 359 359 357 359 358 359 359 359 356 355 355 355 353 352 351 351 353 351 350 353 355 355 356 352 351 355 356 359 358 362 363 360 356 360 360 359 361 360 355 355 358 357 353 352 353 354 361 362 356 357 356 356 354 354 357 355 355 355 353 348 345 346
342 341 342 344 347 348 349 352 350 350 352 352 354 353 355 355 354 358 359 360 360 362 360 360 361 359 358 358 358 358 357 356 352 353 353 354 355 353 350 351 352 353 352 355 355 355 354 353 354 352 354 357 360 361 358 359 361 360 357 361 360 357 357 357 357 357 357 353 355 359 361 360 359 361 358 355 360 362 357 357 356 352 355 349 346
343 343 345 346 348 350 351 350 350 352 354 352 355 354 355 353 350 355 354 359 356 357 356 357 360 359 358 358 359 359 356 355 354 353 352 353 354 354 352 350 350 349 351 350 351 351 354 357 355 355 354 355 357 355 357 357 361 358 359 360 360 362 359 358 359 359 359 361 358 358 360 358 360 359 357 357 361 365 360 357 356 358 359 350 348
343 344 345 346 349 350 350 349 350 354 355 353 353 353 351 350 352 354 353 355 356 355 355 356 357 357 357 357 357 357 356 356 355 356 355 352 351 351 351 350 350 352 352 354 353 350 353 354 357 353 355 355 356 356 357 358 360 359 357 356 359 363 360 359 364 363 361 361 362 359 360 358 360 358 358 356 359 362 360 359 357 359 358 355 353
343 343 346 347 347 347 351 351 352 353 353 351 352 352 350 353 356 355 355 355 355 354 355 354 354 355 355 358 358 359 358 354 355 356 353 351 350 350 350 348 350 351 351 352 353 352 351 352 352 350 348 350 351 351 353 356 359 359 356 354 357 362 361 363 362 361 363 364 362 359 360 360 360 360 359 357 359 362 362 359 359 360 360 360 358
344 343 345 344 344 345 347 349 351 353 353 352 352 352 351 353 354 356 355 352 350 351 352 354 355 355 355 355 356 357 355 354 352 353 354 353 352 351 348 348 350 351 352 351 350 351 352 352 351 352 349 351 353 352 351 355 358 358 359 360 360 361 363 363 363 362 364 362 363 361 361 361 364 362 360 359 358 359 361 359 362 359 357 362 361
345 345 344 343 345 345 347 350 354 351 350 349 350 353 352 354 355 357 356 355 350 348 352 354 355 355 354 354 355 356 357 355 352 352 352 352 353 352 351 350 348 351 352 351 352 351 352 352 352 351 351 349 352 356 353 353 354 357 358 356 356 359 363 364 362 364 366 365 362 365 365 362 365 364 361 360 359 357 356 355 360 359 358 360 365
345 346 345 348 349 348 348 351 352 351 352 352 352 352 352 358 359 358 356 356 354 352 352 355 355 355 355 354 354 354 354 354 352 351 350 350 351 352 353 350 349 349 352 352 350 350 352 353 352 351 352 351 353 352 354 354 354 354 357 358 359 359 361 361 359 361 364 368 364 364 364 365 361 361 361 362 361 359 358 358 359 359 359 361 362
346 348 348 351 351 351 351 352 351 352 353 353 354 355 355 357 358 358 354 356 357 356 354 353 354 355 355 354 354 353 352 352 351 351 350 350 350 350 352 351 349 349 348 351 351 351 352 354 352 353 352 353 352 352 352 354 353 353 357 360 361 360 361 361 360 360 361 364 366 365 363 362 363 361 362 362 362 362 360 360 359 362 363 363 363
348 350 351 352 352 352 353 354 353 352 353 354 354 355 355 354 354 353 352 354 356 356 355 354 355 355 355 356 354 353 351 351 351 350 350 350 350 350 352 351 350 349 349 350 352 353 352 353 350 351 352 353 352 352 353 352 353 355 357 358 360 361 362 362 360 361 362 364 365 364 363 363 364 361 363 362 362 362 361 359 359 361 362 363 363
347 350 351 351 354 356 357 356 355 353 354 355 355 353 352 352 352 352 352 354 355 357 356 354 354 354 355 355 354 354 352 351 351 350 350 351 351 350 351 351 351 350 351 349 350 351 351 351 352 353 352 352 353 353 353 354 353 353 355 360 360 361 362 363 362 360 361 363 363 363 364 364 363 361 360 362 364 363 362 358 359 360 360 361 361
349 349 350 353 353 353 356 357 357 356 354 354 355 353 353 353 353 354 354 355 356 356 356 354 353 353 354 354 354 355 354 353 353 352 350 351 351 351 350 350 351 351 350 349 349 351 352 351 352 352 352 353 354 354 356 357 356 356 355 356 360 361 361 362 360 359 358 362 364 365 365 366 366 364 361 361 363 363 361 359 359 359 358 359 358
351 350 350 351 353 353 354 356 357 357 357 356 356 355 354 354 354 355 357 357 358 358 356 355 355 355 356 355 355 356 357 357 357 357 354 351 351 351 351 352 352 352 351 349 348 348 349 351 351 351 353 356 355 355 357 358 357 357 356 354 360 362 359 361 360 360 359 363 366 366 365 366 366 364 363 361 363 363 363 359 358 357 355 355 356
348 351 352 353 353 354 355 356 356 357 357 358 358 357 356 356 357 357 358 358 359 360 358 357 356 355 356 357 357 358 360 360 360 359 358 356 354 354 355 356 355 354 352 351 350 348 348 348 350 351 353 356 355 354 355 356 356 356 357 353 358 360 361 360 361 359 365 366 367 366 366 366 367 364 363 363 361 362 363 359 357 355 354 353 355
347 349 351 353 355 356 356 356 356 356 356 357 357 357 357 357 357 358 359 360 359 357 356 356 355 355 357 359 358 359 360 361 360 361 360 360 358 357 356 356 357 357 357 356 354 351 348 347 348 350 353 355 355 356 358 356 358 357 356 354 357 359 361 364 365 367 366 367 366 364 364 362 362 362 360 359 357 354 355 359 358 355 354 353 352
348 351 351 352 354 355 356 356 356 357 357 357 358 358 359 359 359 358 358 359 359 357 356 356 355 357 357 359 359 358 359 359 360 361 361 362 360 359 357 357 357 357 358 359 355 354 352 348 348 349 352 353 353 356 355 344 344 351 357 356 358 359 365 364 368 367 364 363 363 363 364 362 362 359 360 358 354 352 351 350 351 352 350 354 350
349 351 351 352 354 354 355 355 356 357 358 358 358 358 358 357 358 358 358 358 358 357 356 356 357 357 356 357 357 358 358 358 358 358 359 362 364 363 360 358 357 355 357 357 357 356 355 353 354 351 350 351 353 351 341 340 342 342 352 354 353 356 360 366 365 362 359 357 358 359 360 362 360 360 359 357 352 350 349 349 349 349 349 346 347
347 348 349 351 352 354 355 356 357 359 358 359 360 359 357 358 357 358 359 358 357 356 357 356 357 357 357 356 357 356 357 357 357 357 357 360 362 363 363 361 359 358 357 356 358 357 356 354 352 351 349 351 353 347 336 337 338 338 340 353 351 353 364 353 353 358 359 359 359 358 358 359 360 359 355 354 353 350 343 341 340 340 339 339 334
344 347 349 351 351 352 355 357 358 359 359 358 357 356 357 358 358 359 357 357 357 357 356 355 356 356 358 359 358 358 357 358 358 357 357 358 358 357 358 361 361 361 359 357 356 357 357 358 356 354 354 351 350 350 335 333 334 334 336 345 356 352 355 350 356 359 359 359 359 359 358 357 359 358 356 353 349 348 347 345 347 348 345 339 336
344 348 348 350 351 353 356 358 359 359 359 356 355 356 357 356 357 356 356 356 356 356 357 356 355 355 356 356 355 356 355 356 356 356 357 357 357 356 356 357 357 357 356 356 357 357 357 358 358 356 354 351 349 340 333 330 330 330 333 344 356 357 351 351 354 358 359 360 360 359 358 357 357 354 355 351 347 345 345 344 344 343 342 340 339
346 348 351 351 352 354 355 356 360 360 357 355 355 356 354 355 356 355 356 355 355 355 354 355 355 355 355 356 355 354 354 354 354 355 355 356 357 359 356 358 358 357 358 358 358 358 358 357 358 357 355 354 352 336 332 328 327 327 332 352 357 361 355 355 356 358 359 359 360 358 356 356 356 353 352 345 347 348 345 342 339 336 334 331 328
347 347 348 350 354 353 356 359 359 357 355 353 354 354 353 352 352 353 353 353 352 351 351 352 351 352 352 353 353 353 352 352 352 352 352 353 354 356 358 360 358 359 360 359 358 358 359 357 358 358 357 357 357 345 329 324 324 325 335 355 358 358 357 356 357 358 359 359 358 357 358 356 355 353 342 331 335 341 343 340 336 332 329 326 324
344 347 348 352 353 355 356 355 356 355 354 354 354 353 353 352 351 352 351 350 350 349 351 350 349 351 351 352 353 352 350 350 352 351 350 352 353 355 355 357 356 356 357 359 358 358 358 359 358 357 357 357 358 353 328 321 321 322 341 356 358 355 354 354 354 355 355 355 355 352 355 356 355 353 329 326 330 340 342 337 332 328 325 323 322
346 347 349 350 353 353 353 356 355 352 352 353 354 352 351 350 350 350 349 349 349 349 348 348 349 351 351 351 352 352 351 351 351 351 351 350 351 352 354 356 356 356 355 357 357 356 357 357 357 358 355 356 357 354 326 320 318 319 339 358 357 354 351 351 351 353 353 355 356 353 350 351 352 344 320 323 327 340 338 333 330 328 326 325 324
344 345 349 354 357 355 352 353 353 352 353 353 352 351 350 348 348 349 347 347 348 348 350 349 349 349 350 350 351 350 350 350 350 350 351 350 350 350 351 353 355 354 353 353 355 355 355 358 357 359 359 358 357 359 352 319 316 316 325 354 357 354 350 350 349 349 350 352 353 351 345 335 327 318 317 317 320 324 334 332 329 327 324 321 324
344 347 354 352 351 349 348 352 354 352 351 352 351 350 348 347 347 346 346 349 351 351 349 348 348 347 346 346 347 347 347 348 347 347 349 348 348 347 348 349 348 350 350 351 353 353 353 354 356 353 358 358 358 357 355 318 316 315 321 340 356 354 352 351 349 348 347 347 347 350 345 323 313 314 315 314 314 319 326 329 328 325 324 324 325
351 352 350 348 345 351 352 352 353 350 350 350 349 348 347 347 346 346 347 349 347 347 346 347 345 345 345 345 345 346 345 345 346 345 345 345 347 346 346 346 347 346 346 347 350 352 353 353 356 355 355 353 358 355 360 324 316 314 317 324 349 354 353 352 348 347 346 345 344 337 329 318 313 313 312 310 311 314 319 327 323 314 315 319 323
349 349 349 346 346 347 350 351 349 348 349 348 348 346 346 346 345 346 346 347 346 346 346 345 344 343 344 344 344 343 343 343 343 344 343 343 344 344 344 344 344 345 345 345 346 348 349 351 354 355 356 355 355 356 347 342 315 312 313 317 326 342 333 351 346 344 345 343 337 328 324 316 310 307 306 308 310 312 318 316 310 312 315 319 322
346 346 346 345 346 349 350 349 348 349 349 347 347 346 345 346 346 346 346 346 346 346 346 344 343 342 342 342 342 341 342 343 341 342 342 342 341 342 343 343 343 343 342 343 345 346 346 348 349 350 352 348 343 349 343 337 326 312 312 314 318 324 326 345 349 346 342 336 328 323 319 308 305 304 306 308 310 315 315 308 311 313 316 320 321
344 343 348 348 347 351 349 347 347 347 348 348 348 345 345 345 345 346 346 346 345 344 343 341 340 340 341 341 340 341 340 340 340 340 339 339 338 338 339 340 340 340 340 340 341 342 343 344 346 346 342 339 340 338 339 333 326 319 314 314 317 319 319 322 343 344 339 335 322 313 307 305 305 305 306 309 310 311 309 310 311 315 321 318 318
346 349 353 356 355 353 351 347 345 346 346 347 347 347 345 345 346 347 346 345 344 343 341 340 340 340 339 340 338 339 338 339 339 339 339 338 338 337 337 337 338 339 340 338 339 339 338 339 338 336 336 338 338 339 337 333 330 328 324 316 315 316 321 318 323 325 314 309 306 306 306 307 309 312 316 315 315 314 314 316 317 320 319 318 318
345 351 354 352 349 346 347 347 345 344 344 344 346 344 347 347 346 345 344 345 343 342 341 340 340 339 340 339 339 339 338 337 337 338 338 337 337 337 336 335 335 335 336 336 337 337 338 338 336 335 334 334 334 335 337 336 335 332 328 323 320 318 315 316 321 320 316 315 314 315 314 313 313 315 317 317 317 318 320 320 320 319 319 317 318
351 353 351 348 346 345 345 345 344 343 344 344 344 345 346 346 344 344 344 344 342 342 340 339 338 338 338 338 338 334 337 336 335 335 333 334 335 336 334 332 330 331 332 334 335 335 334 336 336 336 336 336 337 337 337 336 335 332 329 327 327 326 323 320 317 317 317 318 317 317 315 318 316 316 316 316 317 318 318 318 317 319 320 320 320
352 352 351 348 348 347 347 346 343 343 344 345 346 345 346 345 346 346 346 343 341 339 339 338 338 337 337 338 337 337 336 336 334 332 328 326 327 330 332 332 330 327 325 326 329 333 335 336 336 335 336 335 334 334 333 314 331 321 329 327 326 324 323 321 319 313 317 317 317 316 316 316 315 314 314 313 314 314 315 316 313 315 315 316 317
353 352 352 351 350 349 347 345 343 344 344 345 346 346 346 345 346 346 346 344 341 340 338 338 338 337 336 336 336 336 336 336 334 332 328 321 310 303 310 323 326 316 306 300 305 323 324 334 335 332 329 332 334 330 305 301 301 303 309 313 313 312 312 317 312 312 318 319 319 317 317 316 313 313 313 313 314 314 313 314 314 315 315 316 317
351 350 350 349 349 349 347 345 343 344 344 345 346 346 347 347 347 346 346 345 342 340 339 337 337 337 336 336 335 335 337 337 336 334 334 330 326 319 298 299 306 306 301 297 297 298 301 312 330 330 319 304 304 301 299 298 299 300 301 302 302 303 304 305 309 320 321 320 319 317 317 316 315 314 314 315 315 316 315 313 313 314 315 315 316
Wind_Speed
11 11 12 12 12 11 10 10 10 11 10 10 11 11 11 10 10 10 9 9 8 7 7 7 7 7 6 7 7 7 7 7 7 7 7 6 6 6 5 5 5 5 4 3 3 2 2 3 4 3 3 2 1 1 3 4 2 2 1 1 2 1 0 3 3 2 3 2 1 1 2 1 3 2 3 3 2 3 2 3 3 4 4 3 4
11 10 11 12 11 12 11 10 11 12 11 12 12 12 11 12 11 10 9 9 9 8 7 7 6 6 6 7 7 7 7 8 8 8 8 8 6 5 6 5 5 5 3 2 2 4 4 4 3 3 2 2 2 2 2 1 1 2 2 1 4 1 1 2 4 4 4 2 2 1 2 3 3 3 4 1 5 1 2 1 3 3 4 4 3
11 12 12 12 13 13 11 10 11 12 13 13 13 13 12 11 10 10 9 9 9 9 8 7 7 6 7 6 7 6 7 8 8 9 8 9 9 8 6 5 5 5 5 3 3 3 3 3 4 3 2 3 2 2 1 1 1 1 1 2 3 3 3 1 1 3 4 2 0 3 2 3 4 2 2 2 4 4 4 2 3 4 4 4 3
13 12 13 12 13 12 12 11 11 11 11 12 12 13 11 10 10 10 9 9 9 9 8 8 8 7 6 5 6 5 6 8 8 9 9 8 10 9 6 5 5 6 6 5 3 3 4 2 2 3 2 1 1 1 2 2 1 2 2 1 1 5 3 1 0 2 4 3 3 3 4 3 5 1 3 0 5 4 2 3 4 4 3 4 3
13 13 13 13 13 13 13 12 11 11 12 12 12 12 9 13 12 12 10 10 9 9 9 8 8 7 6 5 6 5 4 6 7 8 8 8 8 9 9 7 6 5 6 5 3 3 3 2 2 2 2 2 2 2 3 3 1 1 0 2 3 4 3 0 0 1 2 2 3 2 2 3 1 5 5 2 4 5 2 3 3 4 4 4 3
13 13 13 13 13 13 13 13 13 12 12 12 12 12 12 11 12 12 10 9 9 10 10 8 8 8 8 8 8 8 8 8 10 10 10 10 10 9 9 10 8 7 5 6 6 5 4 3 4 3 3 2 3 2 2 1 3 5 2 3 2 3 3 3 2 2 1 2 1 2 1 4 3 4 5 2 2 3 5 1 1 3 3 2 2
12 12 12 13 13 13 14 13 13 13 12 12 11 12 13 12 13 13 11 9 9 10 11 8 9 8 9 10 9 9 8 8 8 9 9 9 9 9 8 9 9 8 7 6 6 6 5 4 4 4 3 4 4 3 3 4 2 2 1 2 2 3 1 2 3 2 2 3 3 1 1 3 4 4 4 5 3 1 3 5 1 2 3 3 3
11 12 13 12 13 13 14 15 13 13 12 12 12 11 13 12 13 13 10 10 9 9 11 10 8 8 10 10 9 9 9 9 10 9 9 8 9 9 8 7 8 8 7 7 7 7 5 5 5 4 4 5 3 3 2 2 1 1 1 1 1 1 1 3 3 4 2 2 1 5 2 2 2 5 4 5 5 4 3 1 3 2 3 3 2
14 12 13 13 13 14 13 13 13 13 12 12 12 11 12 12 12 12 11 11 11 12 10 11 9 10 9 9 9 8 9 9 9 9 8 8 9 8 8 8 8 8 7 6 5 6 6 5 5 6 7 5 4 4 3 1 2 0 2 2 3 3 3 0 2 2 5 3 1 2 4 5 4 3 3 4 4 5 5 5 3 1 2 2 3
14 14 13 13 13 13 13 13 13 12 12 12 12 11 11 11 12 13 12 10 10 12 11 12 11 8 9 9 10 8 8 7 8 9 9 8 9 9 8 7 7 8 9 8 9 9 9 8 9 9 7 6 5 3 1 1 3 3 4 5 3 2 1 3 3 2 3 3 4 0 2 4 4 5 4 3 3 2 5 6 5 4 4 1 1
13 14 14 14 13 13 12 13 13 12 11 12 11 11 11 12 12 13 13 10 11 12 12 12 12 10 9 9 10 10 10 9 9 9 9 9 9 10 9 8 7 7 8 9 10 9 9 9 9 8 7 6 5 4 5 5 4 5 5 4 4 5 4 3 3 4 3 2 5 3 3 5 2 4 4 4 5 6 5 5 6 3 5 5 1
14 14 15 15 13 12 12 12 13 13 12 12 11 11 11 11 12 13 12 11 10 11 12 11 10 10 9 10 10 10 10 9 10 10 11 10 10 9 8 8 8 8 7 7 8 10 9 8 8 8 6 5 6 5 5 4 4 4 3 3 4 5 4 4 4 3 5 3 4 4 3 5 3 4 4 2 3 3 5 6 6 5 4 3 1
13 13 14 14 13 12 13 12 12 12 12 13 12 12 11 11 13 13 12 12 11 11 11 11 11 10 10 9 10 9 10 10 10 10 10 10 10 10 9 8 7 7 8 9 8 9 7 7 7 7 7 6 6 5 3 3 5 6 5 4 5 4 5 5 4 5 4 4 4 3 4 5 4 2 4 5 4 2 4 5 5 6 5 4 1
12 13 13 13 12 12 12 12 13 13 13 13 12 11 9 7 10 12 12 11 11 11 11 11 11 10 10 9 9 9 10 10 10 10 10 9 9 9 10 10 9 9 9 9 8 9 9 8 8 8 7 6 5 5 6 6 5 5 6 6 6 5 4 4 5 6 5 4 5 4 4 3 4 3 4 4 5 5 4 4 4 4 5 4 3
12 11 12 13 13 13 12 12 12 11 12 11 10 8 8 9 10 10 10 11 11 11 10 11 10 10 10 10 9 9 9 10 10 9 9 10 10 10 9 9 9 9 9 9 9 8 8 7 7 8 8 7 6 6 7 7 6 6 6 6 6 5 5 5 5 5 5 4 4 5 4 5 4 3 5 4 4 5 5 5 4 5 5 4 4
12 12 13 13 13 13 11 11 10 9 9 8 10 10 9 8 5 8 10 10 10 11 10 11 11 10 10 10 10 10 9 9 9 8 8 9 10 9 10 9 8 7 8 8 8 9 8 8 8 8 7 7 7 7 8 7 7 7 5 6 7 6 6 6 6 6 6 6 5 5 4 5 4 5 4 4 4 3 4 4 3 3 4 4 4
11 12 12 13 12 11 10 11 10 9 10 11 12 12 11 11 10 7 8 10 11 11 11 10 11 10 11 11 10 11 11 11 10 12 12 10 9 10 9 10 10 8 7 8 9 8 8 9 8 8 8 8 8 7 8 8 7 6 6 6 7 7 6 5 5 5 5 7 6 6 5 5 5 4 5 4 3 3 4 4 3 4 2 4 4
11 11 11 12 11 12 11 10 10 10 12 12 13 10 6 4 3 6 7 10 10 10 11 10 11 12 11 11 11 11 11 12 11 12 12 11 11 10 10 10 10 10 9 7 9 9 9 8 8 7 7 8 8 8 9 8 7 6 6 6 6 6 6 5 5 6 5 5 5 6 5 5 5 5 5 5 3 2 4 4 4 3 1 3 4
9 10 11 11 11 11 10 10 11 11 11 11 10 10 11 10 9 7 7 8 8 8 9 9 10 9 9 11 12 12 11 11 11 11 11 12 13 12 12 10 10 10 9 8 8 10 9 8 8 8 8 8 8 8 8 7 7 7 7 7 7 6 6 6 5 5 5 5 5 6 6 6 6 6 6 5 4 4 4 4 3 2 3 3 4
10 11 11 11 10 9 9 10 10 10 10 9 11 10 12 10 9 8 8 8 8 10 9 10 9 9 9 10 11 11 11 11 10 11 11 12 12 12 12 12 11 10 10 9 10 10 9 9 9 10 9 9 9 9 9 8 8 7 7 7 7 7 6 6 6 6 5 5 6 7 6 6 5 5 6 5 5 4 4 4 3 2 3 4 3
8 9 9 10 11 11 10 9 9 9 8 8 10 13 12 11 12 12 12 11 11 10 11 10 9 10 10 10 11 12 12 12 12 12 12 11 11 12 12 11 10 11 10 10 11 11 10 8 9 8 10 8 7 8 8 8 8 8 7 7 7 5 6 6 6 7 6 6 6 6 6 6 5 6 5 5 5 4 4 4 2 3 4 3 3
9 9 9 9 10 11 11 10 9 10 10 9 8 9 11 10 10 11 11 10 10 10 10 10 10 10 11 11 11 11 11 11 13 13 13 12 12 11 11 11 12 11 11 10 11 11 10 10 10 10 9 9 8 8 9 9 9 8 9 8 8 9 8 7 7 7 7 6 6 6 6 6 6 6 6 6 5 5 5 4 2 3 3 2 2
8 8 8 9 9 9 11 11 11 11 10 9 9 11 11 10 10 10 10 11 10 9 8 8 9 10 12 11 11 11 11 12 13 13 13 13 12 12 11 12 12 11 11 11 11 11 10 10 10 10 10 10 10 10 9 10 9 9 9 9 8 8 9 9 9 9 8 6 7 7 6 6 5 6 6 6 5 5 5 4 3 3 3 3 2
7 7 7 7 8 8 9 11 11 10 11 12 10 9 8 8 9 8 10 10 10 8 8 8 9 10 11 11 11 11 12 12 13 12 14 14 13 12 12 12 12 12 12 12 12 12 12 10 10 10 11 10 11 10 11 10 11 10 10 10 10 10 9 9 9 9 8 8 7 7 7 7 6 6 6 5 5 5 5 4 4 3 3 3 2
6 7 7 7 8 9 9 10 11 11 10 10 10 9 8 7 6 6 7 8 8 7 8 8 8 9 9 10 11 11 12 12 12 12 14 14 14 12 11 13 12 13 13 12 12 12 12 11 11 12 12 11 12 11 11 11 10 10 10 11 10 10 10 10 10 9 9 8 8 8 8 7 6 7 6 6 5 5 4 5 4 3 3 3 2
7 7 7 8 7 7 8 9 10 10 10 10 9 9 9 8 9 9 9 8 9 9 9 9 8 9 8 10 11 11 11 12 12 12 12 13 13 13 12 12 13 13 13 13 13 12 12 13 13 12 13 12 12 12 11 11 12 11 11 10 11 10 10 9 10 10 10 10 9 9 8 8 7 7 6 5 4 5 5 5 4 3 3 2 3
8 8 7 7 7 8 9 10 10 11 12 11 10 10 9 9 10 10 8 8 8 9 8 8 9 9 9 10 10 10 10 10 10 11 10 11 12 12 13 13 12 12 13 13 14 13 12 13 13 13 13 13 12 12 11 11 11 11 11 11 10 10 10 10 10 11 11 10 9 8 8 7 6 7 7 6 6 6 6 6 5 4 4 4 4
6 6 7 8 8 8 8 9 10 10 10 10 10 9 9 9 9 9 9 8 7 8 8 9 8 9 10 10 9 10 10 9 8 9 10 10 11 11 11 12 11 12 13 14 14 14 14 13 13 13 13 12 12 11 11 11 11 11 11 12 11 10 11 9 10 9 11 7 7 7 7 7 7 8 8 8 7 7 6 7 5 5 5 5 5
7 6 6 6 7 7 8 8 8 9 10 10 9 9 9 9 9 9 9 9 9 9 10 10 9 10 10 9 8 8 7 8 9 8 9 10 10 9 9 10 10 11 11 12 14 14 14 15 14 14 13 12 12 12 11 11 12 12 12 12 12 11 10 10 7 11 6 6 6 6 6 7 8 7 6 5 5 3 6 6 5 6 5 5 6
7 7 6 6 6 6 7 7 7 8 8 8 7 7 8 9 9 9 10 10 10 11 11 11 11 11 9 8 8 7 7 8 8 9 9 9 10 10 9 9 10 10 10 10 11 13 14 15 14 14 13 12 11 10 11 13 12 10 11 11 11 11 10 8 8 6 6 6 6 6 6 8 8 8 8 7 3 1 4 4 4 7 5 5 6
6 6 6 6 6 6 6 6 6 6 7 6 6 6 6 7 7 8 8 8 9 9 9 10 11 11 10 9 8 8 8 9 9 9 9 9 10 10 10 10 11 11 10 10 11 12 12 13 14 14 14 12 12 10 12 11 12 11 11 11 10 9 8 8 8 7 6 5 5 6 7 9 9 10 10 10 3 5 5 1 4 5 2 3 7
7 7 6 6 6 7 6 6 6 6 6 6 6 6 6 6 6 6 6 6 7 8 9 9 9 10 10 11 10 10 10 10 10 10 9 8 8 9 10 11 11 12 11 10 11 12 12 12 11 13 14 12 12 12 12 14 13 13 12 12 11 10 8 7 5 7 8 7 7 7 7 8 9 10 8 7 6 5 4 4 4 4 5 8 7
7 7 7 6 6 6 6 6 5 5 5 5 4 5 5 5 6 5 5 6 6 7 7 7 8 8 9 9 10 10 10 10 10 10 9 8 9 8 9 10 12 12 11 11 11 12 12 13 13 13 14 13 13 12 12 15 16 15 15 12 11 11 2 6 6 8 8 8 9 8 8 9 7 9 9 9 8 6 7 7 9 10 10 8 7
7 7 7 6 5 5 5 5 5 5 5 4 3 3 3 3 3 4 5 5 5 6 6 7 8 8 8 7 8 9 9 9 9 10 9 9 9 11 11 10 9 10 11 12 13 13 13 12 12 12 12 13 14 14 11 14 15 15 14 13 10 10 10 10 11 10 10 10 10 9 9 10 9 10 10 10 9 8 7 7 6 5 4 6 7
8 8 7 6 6 5 5 5 5 5 4 4 3 3 3 3 4 5 5 5 5 6 6 6 7 6 6 7 8 8 8 9 9 9 9 10 11 11 12 10 10 11 11 12 12 12 12 12 13 13 13 13 13 14 12 14 15 16 15 12 10 5 9 9 11 10 11 11 11 10 11 10 10 11 10 12 10 9 9 8 7 7 7 7 6
8 8 7 7 6 6 6 5 5 5 5 3 4 3 3 3 3 3 3 4 3 4 5 5 5 5 6 5 5 6 7 8 8 8 9 9 9 9 11 10 10 10 10 10 11 11 12 12 12 13 13 13 12 12 13 14 15 15 13 8 9 8 9 11 12 11 10 10 10 10 11 12 11 12 12 15 14 12 11 11 10 9 8 8 8
7 8 7 5 5 6 6 6 5 5 4 3 3 3 3 2 3 2 2 2 2 3 3 2 3 3 5 5 5 5 6 7 8 9 9 10 10 10 10 8 9 9 9 9 10 11 11 11 12 12 13 13 13 12 11 12 14 13 10 8 9 9 9 11 12 12 10 8 9 10 12 11 12 12 12 14 13 13 13 12 11 10 9 8 8
7 6 7 7 6 6 7 6 7 6 4 4 3 3 3 3 3 2 2 2 2 2 1 1 2 2 4 5 5 6 6 7 7 8 8 9 9 9 8 7 9 9 9 9 9 10 11 10 11 12 12 13 13 11 13 13 13 15 13 9 9 10 10 10 11 11 10 10 11 13 12 13 13 12 14 14 17 15 13 13 12 12 11 10 9
8 7 8 8 7 6 7 7 6 6 4 4 3 3 3 3 2 2 1 2 1 1 1 2 1 1 2 3 4 4 5 5 6 5 5 6 7 8 7 6 8 8 9 9 10 10 10 10 12 11 11 13 13 10 12 13 14 15 13 9 9 8 9 10 9 9 11 10 9 9 12 10 10 7 17 17 19 14 12 13 12 12 11 11 9
8 8 7 8 8 8 7 6 6 6 5 4 3 2 2 1 2 1 2 2 3 2 2 1 2 1 0 1 2 3 4 4 4 5 4 5 5 5 7 7 6 7 8 8 8 9 10 9 10 11 11 12 12 10 8 14 14 15 16 10 9 10 12 12 10 9 10 9 8 8 11 15 13 17 14 10 9 9 9 10 11 10 12 12 10
9 9 10 9 8 6 6 6 6 5 4 4 3 3 3 2 2 3 3 2 3 3 1 1 0 0 1 1 2 3 4 3 3 4 3 3 3 4 4 6 6 7 7 8 9 9 9 9 8 9 10 10 10 11 10 15 15 16 17 15 10 12 12 9 10 10 12 13 12 11 6 9 16 18 17 16 14 13 11 7 7 9 11 13 13
10 11 8 8 7 7 8 7 6 4 4 3 3 2 2 2 3 3 3 3 2 2 2 3 2 1 1 0 1 1 2 2 3 3 4 4 3 4 4 5 5 5 6 8 9 7 7 7 7 8 8 11 11 12 7 9 12 14 16 18 11 12 12 12 13 11 11 9 9 7 5 13 20 19 17 16 16 13 12 8 11 17 18 17 11
10 9 8 7 7 7 7 6 4 3 3 3 3 3 3 3 3 4 3 4 4 3 3 2 2 1 0 1 2 2 2 2 3 4 5 5 4 5 5 5 6 7 7 8 8 9 8 7 6 6 6 7 7 5 4 5 8 13 16 18 16 11 13 10 11 14 12 8 8 9 9 18 20 20 18 17 17 18 14 13 17 18 18 18 14
8 7 7 6 6 7 7 5 3 3 2 1 2 2 3 3 4 4 4 3 4 3 2 2 1 0 1 1 1 2 2 2 3 3 3 4 4 4 4 4 4 5 6 8 9 9 9 8 6 5 4 2 4 3 5 8 8 12 14 18 17 14 13 12 10 9 10 11 11 12 15 22 21 21 21 19 19 15 14 18 19 18 19 15 11
8 8 6 5 5 8 7 6 4 4 3 2 2 2 3 4 4 4 5 4 4 3 3 2 1 0 0 1 1 2 2 3 3 3 4 3 3 4 3 3 3 3 3 5 6 6 6 6 5 5 2 2 1 0 1 4 9 11 14 15 16 6 5 9 10 9 9 9 9 15 20 22 23 22 22 22 20 20 22 18 18 16 15 10 11
8 8 7 6 7 7 7 7 5 3 3 2 2 2 4 5 5 5 4 4 3 3 3 2 1 1 0 2 1 1 2 3 3 3 3 3 3 3 3 3 3 3 5 5 3 2 3 3 3 2 1 2 2 3 2 2 3 6 3 5 5 6 9 12 12 10 17 22 23 22 19 17 14 11 10 10 11 12 17 16 18 13 5 8 9
7 8 8 6 5 4 5 6 5 3 2 3 2 2 4 5 5 4 3 3 3 3 2 2 2 1 2 2 1 1 2 3 3 2 2 3 3 3 4 5 5 6 5 5 3 2 2 3 2 1 2 3 2 4 3 2 2 3 4 6 10 12 16 16 12 11 15 15 18 17 14 17 17 20 19 17 15 15 13 10 6 3 3 6 9
7 7 6 5 4 3 4 4 4 3 2 2 3 3 5 6 6 5 4 3 3 2 2 2 2 1 1 2 2 2 2 3 4 4 4 4 4 4 4 5 6 6 5 4 3 2 3 2 2 2 3 3 4 2 3 3 4 5 7 8 10 9 9 11 13 12 14 16 16 17 16 13 15 14 12 9 8 7 8 8 5 2 2 4 9
8 7 5 4 3 4 4 5 3 2 2 3 3 3 4 4 4 5 4 4 3 2 2 2 2 2 1 1 1 2 2 3 4 5 7 6 5 5 4 4 5 5 5 5 6 5 3 5 2 4 3 1 2 2 4 8 6 6 9 10 10 10 11 12 16 20 17 15 15 14 14 13 11 12 12 10 8 8 8 8 9 8 8 8 9
8 7 6 6 5 5 5 4 2 3 3 4 4 3 3 5 5 5 5 5 3 2 2 3 2 2 2 2 2 2 2 3 4 4 5 6 5 6 6 5 4 8 8 6 4 4 6 7 5 5 5 5 3 4 6 9 10 9 7 10 12 14 15 17 23 25 18 12 12 12 10 8 10 10 11 11 11 9 9 8 8 10 10 10 9
9 8 7 6 6 6 5 4 3 3 4 4 5 4 5 5 4 4 5 6 5 4 3 3 2 2 1 1 2 2 2 2 2 3 3 6 5 5 8 8 6 6 7 10 11 12 13 12 6 3 6 11 10 10 11 11 12 12 14 16 15 15 18 19 18 16 14 16 16 15 14 8 7 9 10 11 11 10 9 9 9 9 9 9 9
Wind_Direction
178 185 185 186 185 181 187 181 185 182 183 182 183 185 185 185 182 180 183 187 175 179 181 189 188 186 194 196 194 186 190 188 184 191 190 186 169 175 165 163 149 150 154 181 159 171 167 127 152 164 166 138 155 80 32 35 29 331 95 295 281 226 33 237 109 328 348 202 138 213 147 160 131 286 346 317 324 323 347 333 1 326 26 42 33
182 182 187 189 189 184 184 187 187 184 182 186 188 188 186 190 184 179 178 182 183 180 179 191 189 190 190 195 197 189 181 194 183 189 195 173 165 174 187 163 157 152 146 148 160 159 157 148 135 133 131 105 63 56 75 70 21 318 346 212 234 347 239 309 38 286 222 297 316 261 218 153 22 307 302 44 304 360 296 41 336 12 15 19 30
190 189 188 190 191 187 187 189 191 191 184 187 188 188 186 191 184 180 180 180 182 182 183 189 191 193 200 190 204 190 184 195 193 183 196 183 176 182 182 165 171 160 156 162 168 166 131 121 144 133 140 135 171 203 157 232 271 359 237 329 310 189 262 185 48 328 316 40 43 275 273 305 144 263 265 299 311 324 335 28 334 12 34 24 4
200 193 190 189 191 189 188 190 192 192 184 187 187 188 186 188 183 182 178 181 183 181 188 188 190 186 201 210 197 214 186 189 199 181 197 197 183 180 182 182 192 177 172 177 162 112 121 155 158 133 154 186 200 211 259 248 205 227 265 135 273 277 218 102 339 82 325 350 301 343 320 302 300 203 279 123 335 312 327 336 7 338 49 12 15
201 198 197 187 190 191 190 191 189 192 189 188 190 187 189 185 182 180 178 183 183 179 184 190 180 182 188 191 190 185 188 198 201 187 194 203 200 185 185 191 190 200 174 174 145 120 119 169 161 196 176 243 241 223 241 243 287 294 114 254 241 295 284 245 278 303 113 3 316 278 277 261 6 321 328 327 320 297 336 356 49 312 25 28 3
201 204 199 193 191 188 189 190 192 193 193 190 192 187 187 183 180 179 178 183 183 179 184 189 185 187 184 189 186 189 190 191 198 196 191 194 203 191 187 188 190 198 187 178 163 160 166 171 185 207 192 226 261 294 302 265 195 253 144 263 187 206 308 276 242 147 289 125 231 218 234 315 320 319 293 321 253 311 310 341 60 342 360 50 41
204 209 203 198 191 190 189 192 196 195 191 190 191 186 186 182 179 179 177 180 180 177 181 192 189 191 196 196 192 191 189 191 200 203 198 195 201 199 194 186 192 201 191 186 174 167 181 190 189 209 224 221 232 237 222 238 199 200 55 217 270 59 288 283 273 262 85 280 220 204 262 286 311 309 326 302 308 321 310 309 31 9 338 15 9
200 206 208 206 193 195 192 192 196 196 189 187 189 189 183 181 176 180 177 178 178 176 182 193 192 200 205 207 195 195 194 190 195 205 204 200 199 206 195 195 191 202 209 182 190 160 189 201 200 219 227 238 228 226 246 257 17 113 149 355 34 199 237 279 327 320 306 229 15 311 268 234 272 273 273 328 308 299 281 183 274 102 328 26 22
199 201 206 205 200 197 196 193 196 195 188 187 187 188 179 178 177 178 178 178 175 177 183 191 198 200 201 203 204 202 202 190 193 201 203 201 203 200 208 206 192 198 210 183 200 179 183 192 224 220 217 227 226 233 236 174 221 161 182 195 203 205 231 89 267 275 277 300 87 274 322 306 290 287 268 249 291 315 311 301 310 316 220 129 7
201 201 202 204 204 201 197 196 194 192 189 186 186 183 176 174 177 179 178 181 178 178 184 188 199 202 203 209 204 201 200 196 192 196 201 194 203 203 208 216 213 200 198 205 192 197 195 198 206 218 223 225 231 252 296 278 238 225 226 233 230 241 259 237 236 244 269 310 293 251 280 287 293 288 283 278 266 225 280 301 311 327 308 67 280
199 199 198 202 205 202 197 196 191 191 186 183 184 181 176 176 177 181 180 182 182 182 181 189 198 202 204 207 208 205 201 201 196 197 197 196 203 204 205 207 223 224 209 195 203 205 206 207 215 213 221 220 222 235 233 247 227 209 222 194 227 231 226 241 245 237 251 260 272 238 253 261 251 283 293 320 311 299 304 302 302 319 328 319 93
195 197 197 196 199 199 196 196 187 187 184 181 187 180 179 177 178 180 179 183 184 184 185 190 196 201 206 206 208 208 206 202 201 201 198 197 202 206 208 208 212 218 221 215 202 205 208 209 216 226 218 226 222 228 245 257 270 262 240 224 220 210 233 245 278 291 284 246 264 281 267 279 279 267 285 244 248 294 315 309 303 310 294 318 86
194 194 194 191 190 192 194 188 183 183 183 184 185 182 179 178 177 178 180 183 186 186 189 192 198 200 205 206 207 209 208 211 206 208 202 202 205 205 204 211 207 217 214 214 210 212 207 205 218 218 216 220 241 261 265 264 276 280 269 243 244 224 226 234 234 252 268 302 302 295 282 274 280 292 288 293 301 294 275 285 299 315 306 304 309
196 191 193 185 182 188 190 183 182 184 187 185 183 181 172 170 181 181 180 183 185 189 192 194 199 205 203 206 207 206 208 208 209 207 204 207 207 211 209 204 208 212 214 215 220 212 215 209 208 217 219 224 222 230 243 258 259 262 251 246 250 235 246 246 255 263 254 250 261 282 285 292 287 288 280 279 285 277 270 284 300 299 296 295 293
196 189 192 181 179 183 183 182 183 186 190 183 179 156 153 175 182 184 183 184 187 191 193 197 199 204 204 205 208 208 206 206 207 208 204 206 211 208 216 218 210 208 215 213 214 227 224 219 208 215 210 215 224 229 238 232 230 236 254 260 262 257 241 258 265 260 268 257 258 268 285 281 295 285 279 277 286 298 306 312 316 299 301 301 281
194 183 186 179 175 175 175 175 176 184 177 170 147 159 155 142 187 203 188 190 191 194 195 196 202 202 205 207 206 210 211 207 204 205 211 211 210 217 205 221 229 208 206 209 207 215 221 219 210 216 221 217 219 224 232 238 221 228 239 242 240 247 248 239 250 265 264 264 264 269 267 281 277 281 293 304 288 293 310 303 287 292 296 295 308
186 176 182 171 169 170 168 168 174 171 159 163 162 168 173 171 184 193 205 194 197 199 200 199 200 202 201 204 206 206 209 212 204 202 208 207 216 214 213 208 215 223 210 206 215 210 218 218 224 228 213 220 227 224 225 225 232 237 234 235 251 255 257 258 269 272 273 268 254 243 256 260 267 270 272 274 280 308 289 289 283 283 300 290 296
176 174 167 161 158 160 160 166 165 162 162 168 170 162 122 119 146 175 219 218 210 204 207 204 202 203 202 203 206 210 210 211 214 208 208 209 209 215 217 209 212 210 217 220 210 208 209 215 229 229 233 220 223 224 218 222 224 235 239 245 250 255 255 250 251 261 262 267 267 258 246 252 257 255 257 262 254 230 264 265 267 263 256 272 296
167 146 146 148 152 153 157 167 156 156 162 172 167 130 141 162 177 172 205 215 222 216 211 210 207 207 206 205 204 205 212 213 216 218 213 211 211 207 213 215 212 212 209 220 221 212 207 207 214 222 216 225 223 227 225 226 227 233 240 241 231 232 241 246 244 241 255 263 264 260 256 259 263 271 274 265 255 232 250 262 273 293 279 277 275
158 155 148 143 139 148 157 149 151 161 169 175 148 154 175 170 162 176 191 201 209 213 210 218 213 214 212 205 207 207 206 212 213 216 216 212 211 211 209 212 213 214 211 207 218 222 218 213 207 214 224 220 217 220 221 221 223 235 241 241 235 220 228 236 246 249 246 246 254 257 258 258 263 262 262 262 257 250 268 271 267 273 262 267 277
163 159 156 158 154 161 158 155 151 154 163 170 167 170 179 180 176 180 185 195 204 210 211 208 214 216 217 214 207 203 207 206 210 211 219 217 213 216 214 213 209 215 214 211 214 219 225 227 233 227 224 224 225 226 223 223 222 225 232 245 257 244 228 232 234 245 245 248 249 257 262 263 270 271 266 267 265 257 245 249 261 260 265 259 258
154 153 161 167 163 170 169 149 139 146 155 168 160 156 185 189 178 181 185 196 211 212 216 210 204 209 218 213 213 204 205 209 210 209 212 216 216 215 218 215 216 211 215 219 217 216 216 224 229 228 234 233 223 224 231 226 226 224 231 231 227 229 234 236 243 239 232 240 250 242 245 255 248 258 275 277 277 274 267 261 200 268 280 267 250
161 159 162 156 164 172 165 150 161 159 155 152 153 176 189 181 178 184 188 195 203 219 231 228 221 216 212 215 215 210 205 209 212 213 212 215 214 216 214 218 219 216 210 219 218 220 223 222 226 232 228 230 228 225 227 233 233 230 231 238 241 232 223 229 230 232 236 231 235 235 234 239 245 247 249 257 265 274 285 292 286 263 265 250 238
165 160 162 163 165 167 160 156 165 165 169 174 175 180 178 176 183 183 197 198 199 208 220 230 233 232 227 218 216 219 213 209 212 214 216 216 217 214 213 218 220 220 217 211 219 223 221 221 229 229 230 231 231 228 229 229 231 237 235 230 236 237 233 230 235 235 231 231 231 231 232 233 237 237 246 254 252 256 258 252 252 235 245 262 239
153 154 162 166 169 171 169 171 172 175 179 186 190 191 176 168 175 191 206 204 197 202 210 223 230 234 237 233 229 220 220 216 217 216 215 215 216 218 213 216 219 221 223 221 211 219 225 221 222 227 229 228 230 229 229 236 237 233 233 237 233 231 231 234 238 236 229 229 228 230 228 228 224 239 233 238 243 242 251 255 250 226 228 216 211
169 164 163 172 174 172 174 178 178 180 182 188 195 196 196 190 193 198 204 191 186 191 198 205 217 224 229 238 239 235 229 223 221 223 220 217 216 217 218 215 218 221 223 226 226 217 219 223 226 227 231 229 227 228 228 231 236 239 236 232 236 232 231 233 234 233 227 225 228 225 222 223 226 229 236 231 229 239 248 249 246 243 244 236 225
174 178 179 173 177 186 187 181 185 185 187 190 192 195 198 199 202 206 209 201 194 193 195 196 205 216 221 221 224 235 238 235 228 233 228 222 222 219 219 221 216 221 223 225 225 226 224 225 224 227 232 233 231 229 229 228 233 241 245 240 232 232 232 236 236 233 230 221 220 217 216 217 215 225 230 227 223 229 235 238 229 236 233 235 228
173 182 186 186 188 191 193 192 190 191 192 195 194 192 197 204 210 210 210 209 204 195 195 202 205 213 219 222 223 219 224 233 239 237 244 239 229 227 225 224 225 221 225 227 228 226 224 228 229 227 227 231 233 233 230 231 232 235 239 239 234 232 237 230 241 247 241 220 200 209 214 210 217 220 221 226 223 226 222 224 210 214 229 235 241
173 174 180 186 186 188 189 189 191 193 197 198 196 196 198 205 213 216 214 214 213 213 214 205 207 220 219 221 227 230 227 228 228 231 234 243 246 242 237 235 228 232 230 230 231 233 233 231 230 231 230 226 228 230 231 227 229 231 235 236 232 230 233 241 216 232 159 177 173 196 211 220 215 227 213 238 253 254 222 214 206 224 229 230 237
171 167 170 173 169 172 177 183 187 193 196 199 202 203 204 210 214 217 221 223 224 227 225 222 220 221 220 218 219 223 226 224 226 228 232 233 237 239 240 238 240 236 239 240 239 237 237 237 234 231 231 232 229 229 226 221 227 234 232 233 232 231 228 222 221 180 183 172 180 192 206 211 202 195 194 206 200 132 338 323 223 212 210 228 233
156 151 158 152 159 162 166 175 181 185 188 189 195 200 204 213 220 221 223 223 220 221 221 222 224 223 223 220 218 224 228 228 224 226 228 232 234 233 232 234 237 238 239 240 243 243 241 243 242 238 233 231 232 228 215 206 205 221 239 240 236 233 220 212 196 201 179 163 168 206 210 195 188 194 209 209 192 195 199 159 39 9 10 234 215
153 151 153 157 162 165 168 172 171 174 174 178 183 189 196 208 211 218 221 218 217 219 222 221 224 226 224 222 223 220 221 223 226 227 228 230 229 228 233 234 233 232 230 234 238 240 244 244 243 245 245 239 235 229 200 189 195 202 215 238 246 245 227 199 182 191 166 182 197 203 213 213 220 211 201 189 197 165 160 125 115 104 76 48 20
156 156 160 165 166 169 171 163 160 160 166 165 171 180 188 187 196 203 209 210 215 221 224 228 229 232 230 226 225 226 228 229 228 232 234 227 227 227 224 226 231 234 233 232 232 235 236 237 240 241 245 245 248 238 197 191 193 198 205 221 245 248 178 99 180 166 180 190 201 208 211 219 216 194 175 187 183 148 99 90 81 77 63 58 47
160 158 163 160 165 168 166 163 153 154 158 160 178 194 176 175 190 193 210 212 213 213 216 222 225 229 231 231 226 224 227 227 228 231 227 227 226 228 230 230 229 226 229 232 234 232 233 236 237 237 238 240 241 242 202 189 193 197 200 208 234 242 125 177 192 188 195 197 201 207 211 214 210 187 190 177 163 164 166 157 155 156 131 95 81
159 162 165 164 164 162 155 154 149 136 125 132 153 174 166 179 197 201 207 218 218 223 219 222 228 230 235 236 238 236 236 234 235 236 234 232 236 238 234 231 231 231 229 229 230 232 232 232 232 233 235 235 237 230 210 191 194 197 199 200 231 196 152 182 199 205 209 208 205 208 208 207 194 192 189 177 172 173 174 170 157 149 132 96 63
165 166 163 168 169 169 166 148 125 131 139 164 146 158 175 188 197 211 209 223 239 238 236 228 223 225 233 239 244 249 247 247 242 243 241 238 236 237 239 234 233 237 238 239 237 236 234 231 230 233 236 236 239 225 207 197 195 200 188 198 216 169 171 184 202 208 206 209 211 210 214 205 191 197 180 172 181 179 173 164 153 131 109 91 75
159 159 163 164 154 157 134 128 124 125 133 146 117 160 187 187 201 199 219 214 235 249 263 269 285 271 255 248 242 247 247 246 247 246 247 246 243 243 243 239 238 235 235 233 239 239 238 237 234 233 235 240 240 227 199 194 198 186 170 204 200 188 175 191 209 214 211 212 217 221 214 210 194 199 163 165 156 159 169 158 141 129 115 109 102
149 143 138 147 140 129 134 137 130 127 131 131 152 168 179 188 177 170 200 203 214 227 224 282 255 250 251 244 239 237 237 240 242 241 247 253 252 249 250 248 248 244 235 229 227 237 240 245 246 240 238 240 241 229 193 192 185 171 184 196 191 197 193 202 216 215 208 200 210 213 211 213 203 198 149 161 159 166 157 146 137 127 122 116 113
142 143 141 138 135 135 132 130 131 129 134 140 148 162 181 181 174 151 219 234 201 107 159 213 223 222 235 241 246 244 246 249 255 256 257 262 266 267 271 268 258 251 247 245 241 239 237 236 240 242 248 248 245 237 188 186 177 176 186 195 186 186 186 198 202 195 211 213 206 182 202 215 211 160 153 170 172 168 146 139 136 132 127 122 119
133 126 127 119 120 130 140 129 129 121 130 136 146 158 152 162 125 127 186 204 174 151 137 119 90 67 301 297 306 295 291 293 289 279 275 271 284 284 277 271 263 259 263 260 255 245 245 249 246 240 237 238 241 246 196 179 174 181 188 199 199 194 198 193 195 196 206 211 192 181 188 195 174 147 143 116 91 94 125 138 138 140 133 126 131
128 123 129 134 145 143 127 126 114 124 133 142 158 153 163 161 164 185 196 127 95 86 85 50 320 245 355 352 338 335 321 321 319 312 311 293 284 285 286 273 273 273 268 253 251 257 255 253 249 250 255 251 242 235 217 180 185 183 189 199 200 201 200 184 192 193 202 205 198 197 152 138 125 131 138 143 136 134 126 135 131 131 131 129 130
116 127 141 138 125 112 112 107 108 128 136 143 158 155 152 160 179 180 134 89 125 123 148 132 122 113 87 12 284 251 261 279 277 280 288 283 273 264 263 268 264 257 259 265 261 253 254 255 253 253 244 243 248 245 240 177 185 184 191 202 208 202 196 191 194 197 194 192 183 156 139 136 134 138 139 136 135 123 113 108 118 114 115 121 121
132 142 139 141 131 128 111 107 124 134 139 157 157 165 153 177 161 116 129 141 142 149 142 142 138 137 39 358 15 343 331 316 316 318 307 305 303 290 281 273 266 259 254 256 261 258 251 249 253 252 252 248 241 218 165 154 185 188 194 206 214 210 186 185 185 194 193 162 143 148 142 141 137 134 128 122 122 119 110 116 118 121 122 117 111
142 137 144 139 121 114 110 109 112 111 140 97 160 178 177 193 139 134 161 141 142 136 137 136 135 51 315 23 44 339 13 334 3 345 346 347 346 339 323 311 302 280 273 264 252 259 259 256 253 249 252 346 20 339 132 154 179 202 203 207 212 207 184 193 191 183 165 157 157 158 160 151 142 136 131 125 119 118 125 128 128 127 125 122 118
135 132 129 121 118 119 123 126 127 143 134 156 178 192 172 160 131 156 153 157 151 156 161 160 183 39 262 157 57 27 27 18 16 26 22 15 14 359 345 341 305 303 296 283 290 299 295 284 258 253 185 176 222 52 102 179 189 199 209 213 218 220 219 194 181 187 173 174 159 150 147 147 145 138 129 126 125 126 130 134 126 132 133 131 129
128 127 122 113 115 121 125 122 127 135 142 162 206 209 178 145 162 162 164 147 151 147 152 164 172 154 149 167 174 101 70 50 27 46 47 33 14 1 10 341 292 230 217 219 225 268 298 325 336 7 269 252 227 238 193 174 245 227 263 38 68 87 84 60 59 89 94 91 89 85 79 70 69 90 110 117 124 126 128 123 127 132 141 137 131
135 126 131 135 141 133 128 131 130 144 156 161 185 204 126 142 161 165 154 146 170 163 172 194 176 176 148 154 188 181 133 87 39 39 55 47 27 19 27 13 355 348 334 328 298 246 194 185 243 248 228 222 227 223 207 198 178 135 128 125 105 96 95 91 87 86 88 92 101 106 104 101 94 83 87 93 97 109 111 111 94 91 184 143 129
127 136 142 139 138 123 123 123 116 127 175 212 170 176 145 158 162 175 163 165 179 199 186 167 180 173 187 182 157 158 244 106 69 48 38 28 35 25 37 31 15 359 336 320 317 339 319 315 252 205 219 223 215 214 224 204 175 157 138 142 135 124 115 116 110 106 110 111 108 103 101 101 100 98 102 113 122 117 107 98 103 147 197 149 134
140 136 144 129 127 116 118 120 114 140 174 199 196 173 158 171 178 160 163 167 152 176 223 185 179 185 163 232 213 172 132 126 114 92 71 50 27 18 21 37 39 4 347 333 326 324 10 335 54 33 354 201 208 236 53 26 38 102 148 147 146 137 129 122 123 118 113 118 123 130 142 145 144 133 128 123 127 124 118 126 151 170 172 166 157
135 139 133 120 119 125 123 121 110 155 180 200 179 171 185 183 171 168 164 152 160 177 186 207 210 188 180 193 215 178 156 174 143 129 118 95 58 47 19 2 30 24 8 347 348 354 337 335 48 49 19 334 20 50 69 69 74 72 93 128 125 132 132 133 137 136 135 134 133 126 115 115 131 135 139 139 141 141 140 159 178 179 178 170 155
142 140 138 136 129 124 125 124 133 167 194 199 185 189 188 188 186 176 170 158 171 179 201 188 212 219 83 223 194 199 169 156 139 140 144 142 132 81 58 54 50 44 21 18 24 21 13 16 14 76 56 48 73 80 77 85 89 100 104 106 110 112 117 126 131 127 130 135 140 139 136 121 120 132 139 139 139 142 156 173 176 177 173 155 141